Divulgation des contrats

2015-2016 - 4ième trimestre

Veuillez sélectionner le nom du vendeur afin d'obtenir les détails du contrat.

Date Nom du vendeur Description

Montant

2016-03-31 COMMISSIONAIRES 0460 Services de protection 292 933,20 $
2016-03-31 COMMISSIONAIRES 0460 Services de protection 82 021,90 $
2016-03-21 CANADIAN CORPS OF COMMISSIONAIRES 0460 Services de protection 95 343,69 $
2016-03-10 SHARP ELECTRONICS OF CANADA LTD. 0533 Location de machinerie, de mobilier et d'installat 30 844,80 $
2016-03-09 LEXISNEXIS CANADA INC. 1143 Matière imprimée, incluant livres, journaux, image 24 569,38 $
2016-03-09 PICCO & WHITE 0410 Services juridiques 109 422,31 $
2016-03-07 AUSPICE SAFETY INCORPORATED 0451 Autres services de santé, non précisés ailleurs 12 450,00 $
2016-03-07 GLOBAL UPHOLSTERY CO INC 1231 Mobilier et ameublement du bureau incluant des pièces 11 851,27 $
2016-03-01 ALTIS HR 0499 Autres services professionnels non précisés ailleurs 113 825,25 $
2016-03-01 MARK MILLER 0410 Services juridiques 445 514,32 $
2016-02-29 SIERRA SYSTEMS GROUP INC. 0499 Autres services professionnels non précisés ailleurs 24 865,65 $
2016-02-29 SPIRIT STAFFING & CONSULTING INC. 0813 Services d’aide temporaire 14 974,00 $
2016-02-26 PARTNERS IN CREDIT INC. 0499 Autres services professionnels non précisés ailleurs 7 563 943,56 $
2016-02-10 HERMAN MILLER CANADA INC. 1231 Mobilier et ameublement du bureau incluant des pièces 15 044,34 $
2016-02-04 HUGHES & BRANNAN 0410 Services juridiques 64 894,67 $
2016-02-03 GOSSELIN NADEAU 0499 Autres services professionnels non précisés ailleu 14 238,00 $
2016-02-02 CANADA COUNCIL ART BANK 0460 Services de protection 16 899,15 $
2016-01-29 REGUS 0332 Services audio-visuels 12 533,63 $
2016-01-28 HILL AND KNOWLTON 0447 Frais d'enseignement et frais de participation à d 20 050,00 $
2016-01-28 TOTEM OFFISOURCE INC 1231 Mobilier et ameublement du bureau incluant des pièces 42 529,76 $
2016-01-27 FRANCES BRENNAN LAW OFFICE 0410 Services juridiques 44 572,29 $
2016-01-27 TIMOTHY MATHANY PROFESSIONAL CORPORATION 0410 Services juridiques 211 307,89 $
2016-01-21 THOMSON PROFESSIONAL 1143 Matière imprimée, incluant livres, journaux, image 169 393,78 $
2016-01-15 TNT EXPRESS CANADA LTD T46259 0213 Services de messager 27 930,00 $
2016-01-07 XPERA RISK MITIGATION AND INVESTIG 0460 Services de protection 14 043,75 $
2016-01-01 NICHOLAS ALEXANDER 0499 Autres services professionnels non précisés ailleurs 283 664,63 $
2015-12-15 AVIK KUMAR GHOSH 0410 Services juridiques 321 131,29 $
2015-12-15 BIANCHI PRESTA BARRISTERS & SOLICITORS 0410 Services juridiques 13 415,58 $
2015-12-15 CAROL SHIRTLIFF-HINDS 0410 Services juridiques 771 075,63 $
2015-12-03 NATHANSON SEAMAN WATTS 0410 Services juridiques 197 244,93 $
2015-11-27 PINK STAR BARRO 0410 Services juridiques 18 801,93 $
2015-11-27 STEPHEN I. COLE 0410 Services juridiques 278 433,77 $
2015-11-23 SIMPLEX INDUSTRIES 0210 Transports d'objets non spécifiés ailleurs 22 600,00 $
2015-11-10 LEBLANC DOSTIE 0410 Services juridiques 32 753,77 $
2015-10-29 DAVID S. FOULDS 0410 Services juridiques 10 863,65 $
2015-10-29 HEATHER-ANN ELISE CARPENTER 0410 Services juridiques 303 074,90 $
2015-10-29 JOHN FREDERICK HANBIDGE 0410 Services juridiques 23 712,13 $
2015-10-29 MILLER THOMSON LLP 0410 Services juridiques 29 035,64 $
2015-10-15 SABRINA GOLDFARB 0410 Services juridiques 27 092,71 $
2015-09-23 BURCHELL MACDOUGALL (TRURO) 0410 Services juridiques 307 561,26 $
2015-09-21 MACISAAC CLARKE & DUFFY 0410 Services juridiques 205 146,93 $
2015-09-03 THOMPSON LEROSE & BROWN 0410 Services juridiques 521 583,69 $
2015-09-01 FELICIA (TIPPINS) O'HARA 0410 Services juridiques 121 115,61 $
2015-08-31 COLEMAN FRASER WHITTOME LEHAN 0410 Services juridiques 50 962,39 $
2015-08-26 CREIGHTON SHATFORD 0410 Services juridiques 245 764,34 $
2015-08-08 AUBE, ROLAND H., LLB 0410 Services juridiques 120 621,03 $
2015-08-08 JOSEPH CHAPMAN 0410 Services juridiques 618 848,32 $
2015-08-06 ANDREA P. HEMMERLING PROFESSIONAL CORPORATION 0410 Services juridiques 78 488,83 $
2015-08-06 GILLESPIE RENKEMA BARNETT BROADWAY 0410 Services juridiques 642 025,48 $
2015-08-06 MARSHALL LAW 0410 Services juridiques 135 040,05 $
2015-08-06 MOUSSEAU DELUCA MCPHERSON PRINCE 0410 Services juridiques 2 083 231,73 $
2015-08-06 PUSHOR MITCHELL LLP 0410 Services juridiques 1 988 401,45 $
2015-07-29 ANDREW M. BEAL PROFESSIONAL CORP 0410 Services juridiques 138 552,40 $
2015-07-29 BOW VALLEY COUNSEL 0410 Services juridiques 874 569,41 $
2015-07-29 DEANA NICOLE DUMARESQUE 0410 Services juridiques 211 648,17 $
2015-07-29 DONNA DERIE-GILLESPIE PROFESSIONAL CORPORATION 0410 Services juridiques 24 377,08 $
2015-07-29 JAMES J. YUSEP LAW 0410 Services juridiques 265 045,01 $
2015-07-24 DONNELLY & MURPHY 0410 Services juridiques 152 787,85 $
2015-07-17 MICHAEL SMITH LAW OFFICE 0410 Services juridiques 261 988,96 $
2015-07-16 JONES & CO. 0410 Services juridiques 4 766 332,82 $
2015-07-08 J. R. HUBER PROFESSIONAL CORP. 0410 Services juridiques 190 518,70 $
2015-07-01 JULIEN & CORMIER PROFESSIONAL CORP. 0410 Services juridiques 231 087,62 $
2015-06-26 CYR & MINVILLE 0410 Services juridiques 195 029,40 $
2015-06-26 ST-ONGE & ASSELS 0410 Services juridiques 17 419,37 $
2015-06-25 PAUL A. BAILEY PROFESSIONAL CORPORATION 0410 Services juridiques 341 585,00 $
2015-06-19 CAIN, LAMARRE (ROUYN) 0410 Services juridiques 189 272,15 $
2015-06-01 CYR, GEORGES C. 0410 Services juridiques 102 751,73 $
2015-05-20 BRADLEY LAW OFFICE 0410 Services juridiques 962 222,82 $
2015-05-20 SERGE F. TREHERNE PROFESSIONAL CORPORATION 0410 Services juridiques 12 923,66 $
2015-04-28 WYRZYKOWSKI & ROBB 0410 Services juridiques 877 740,51 $
2015-04-27 JOHN DICKSON PROFESSIONAL CORP 0499 Autres services professionnels non précisés ailleurs 575 725,29 $
2015-04-20 CLYDE R. BOND 0410 Services juridiques 78 958,47 $
2015-04-20 DONEY LAW OFFICE 0410 Services juridiques 226 314,01 $
2015-04-20 ERICA MAE QUAYLE 0410 Services juridiques 155 601,56 $
2015-04-01 COMMISSIONAIRES 0460 Services de protection 296 662,75 $
2014-10-10 XEROX CANADA LTD. 0533 Location de machinerie, de mobilier et d’installation 984 034,79 $
2014-04-14 CYBERBAHN 0499 Autres services professionnels non précisés ailleurs 197 795,20 $
2014-04-01 ACS EXPRESS INC. 0213 Services de messager 30 030,00 $
2014-04-01 ACS EXPRESS INC. 0213 Services de messager 61 792,50 $
2013-04-01 RICOH CANADA INC. 0533 Location de machinerie, de mobilier et d’installation 10 651,76 $
2012-03-27 CETTEC DIGITAL IMAGING INC. 0321 Services d'imprimerie 1 096 526,02 $


Date de modification :